Reno, NV

7:06 AM PST on January 20, 2018 (GMT -0800)
Reno-Tahoe International

Weather History for KRNO - March, 2014

Change the Weather History Date:

Saturday, March 29, 2014

  Actual Average Record
Temperature  
Mean Temperature 48 °F 48 °F  
Max Temperature 59 °F 60 °F 78 °F (1966)
Min Temperature 37 °F 35 °F -3 °F (1897)
Degree Days  
Heating Degree Days 17 17  
Month to date heating degree days 469 563  
Since 1 July heating degree days 4053 4201  
Cooling Degree Days 0 0  
Month to date cooling degree days 0 0  
Year to date cooling degree days 0 0  
Moisture  
Dew Point 32 °F    
Average Humidity 55    
Maximum Humidity 76    
Minimum Humidity 33    
Precipitation  
Precipitation T in 0.02 in 0.64 in (1954)
Month to date precipitation 0.08 0.73  
Year to date precipitation 1.15 2.78  
Snow  
Snow 0.00 in 0.00 in 3.10 in (1912)
Month to date snowfall 0.0 1.9  
Since 1 July snowfall 6.2 20.9  
Snow Depth 0.00 in    
Sea Level Pressure  
Sea Level Pressure 29.87 in    
Wind  
Wind Speed 20 mph (SSE)    
Max Wind Speed 41 mph    
Max Gust Speed 54 mph    
Visibility 10 miles    
Events Rain    
T = Trace of Precipitation, MM = Missing Value Source: NWS Daily Summary

Daily Weather History Graph

Daily Weather History Graph

Search for Another Location

Airport or City:

Trip Planner

Search our weather history database for the weather conditions in past years. The results will help you decide how hot, cold, wet, or windy it might be!

Date:

Astronomy

Mar. 29, 2014 Rise Set
Actual Time 6:47 AM PDT 7:20 PM PDT
Civil Twilight 6:20 AM PDT 7:47 PM PDT
Nautical Twilight 5:49 AM PDT 8:19 PM PDT
Astronomical Twilight 5:16 AM PDT 8:51 PM PDT
Moon 5:59 AM PDT (3/29) 6:31 PM PDT (3/29)
Length of Visible Light 13h 26m
Length of Day
12h 32m
Waning Crescent, 1% of the Moon is Illuminated
Mar 29
Waning Crescent
Mar 30
New
Apr 7
First Quarter
Apr 15
Full
Apr 22
Last Quarter

Hourly Weather History & Observations

Time (PDT) Temp. Windchill Dew Point Humidity Pressure Visibility Wind Dir Wind Speed Gust Speed Precip Events Conditions
12:55 AM 52.0 °F - 28.0 °F 40% 29.94 in 10.0 mi SSE 20.7 mph 33.4 mph N/A   Mostly Cloudy
1:55 AM 52.0 °F - 30.0 °F 43% 29.91 in 10.0 mi ESE 20.7 mph 28.8 mph N/A   Overcast
2:55 AM 52.0 °F - 32.0 °F 47% 29.88 in 10.0 mi SE 24.2 mph 28.8 mph N/A   Mostly Cloudy
3:55 AM 52.0 °F - 32.0 °F 47% 29.88 in 10.0 mi SE 12.7 mph 23.0 mph N/A   Scattered Clouds
4:01 AM 52.0 °F - 32.0 °F 47% 29.96 in 10.0 mi Variable 6.9 mph 17.3 mph N/A   Scattered Clouds
4:55 AM 52.0 °F - 33.1 °F 49% 29.88 in 10.0 mi ESE 15.0 mph 21.9 mph N/A   Mostly Cloudy
5:55 AM 52.0 °F - 32.0 °F 47% 29.88 in 10.0 mi ESE 16.1 mph 24.2 mph N/A   Mostly Cloudy
6:55 AM 53.1 °F - 30.0 °F 41% 29.87 in 10.0 mi SE 23.0 mph 34.5 mph N/A   Overcast
7:55 AM 53.1 °F - 30.9 °F 43% 29.89 in 10.0 mi SSE 26.5 mph 40.3 mph N/A   Overcast
8:55 AM 53.1 °F - 33.1 °F 47% 29.88 in 10.0 mi SSE 32.2 mph 42.6 mph N/A   Overcast
9:55 AM 53.1 °F - 33.1 °F 47% 29.89 in 10.0 mi SSE 32.2 mph 43.7 mph N/A   Mostly Cloudy
10:55 AM 53.1 °F - 32.0 °F 45% 29.88 in 10.0 mi South 35.7 mph 47.2 mph N/A   Mostly Cloudy
11:55 AM 59.0 °F - 30.9 °F 35% 29.85 in 10.0 mi SSW 19.6 mph 42.6 mph N/A   Mostly Cloudy
12:55 PM 54.0 °F - 32.0 °F 43% 29.87 in 10.0 mi SSE 28.8 mph 38.0 mph N/A   Mostly Cloudy
1:55 PM 53.1 °F - 32.0 °F 45% 29.86 in 10.0 mi South 29.9 mph 46.0 mph N/A   Overcast
2:55 PM 52.0 °F - 33.1 °F 49% 29.85 in 10.0 mi South 19.6 mph 32.2 mph 0.00 in Rain Light Rain
3:55 PM 52.0 °F - 32.0 °F 47% 29.82 in 10.0 mi West 5.8 mph - 0.00 in   Overcast
4:55 PM 46.9 °F - 35.1 °F 63% 29.85 in 10.0 mi NW 25.3 mph 35.7 mph N/A   Overcast
5:55 PM 45.0 °F 36.6 °F 34.0 °F 65% 29.85 in 10.0 mi NW 21.9 mph - N/A   Overcast
6:55 PM 44.1 °F 35.7 °F 34.0 °F 68% 29.85 in 10.0 mi NW 20.7 mph 26.5 mph N/A   Overcast
7:55 PM 43.0 °F 34.5 °F 32.0 °F 65% 29.84 in 10.0 mi NNW 19.6 mph 26.5 mph N/A   Overcast
8:55 PM 41.0 °F 33.1 °F 32.0 °F 70% 29.87 in 10.0 mi North 15.0 mph - N/A   Overcast
9:55 PM 39.9 °F 33.9 °F 32.0 °F 73% 29.86 in 10.0 mi North 9.2 mph - N/A   Overcast
10:55 PM 41.0 °F 37.1 °F 30.9 °F 67% 29.84 in 10.0 mi NW 5.8 mph - N/A   Overcast
11:55 PM 39.9 °F 35.8 °F 33.1 °F 77% 29.83 in 10.0 mi North 5.8 mph - 0.00 in Rain Light Rain